TimeCST,TemperatureF,Dew PointF,Humidity,Sea Level PressureIn,VisibilityMPH,Wind Direction,Wind SpeedMPH,Gust SpeedMPH,PrecipitationIn,Events,Conditions,WindDirDegrees,DateUTC
12:15 AM,35.6,17.6,48,30.00,10.0,SSE,4.6,-,N/A,,Clear,160,2013-02-06 06:15:00
12:35 AM,30.2,15.8,55,29.99,10.0,South,3.5,-,N/A,,Clear,170,2013-02-06 06:35:00
1:15 AM,32.0,15.8,51,29.98,10.0,SW,3.5,-,N/A,,Clear,220,2013-02-06 07:15:00
1:35 AM,33.8,17.6,52,29.97,10.0,Calm,Calm,-,N/A,,Clear,0,2013-02-06 07:35:00
1:55 AM,32.0,17.6,55,29.97,10.0,SSW,4.6,-,N/A,,Clear,200,2013-02-06 07:55:00
2:15 AM,30.2,15.8,55,29.97,10.0,SSW,4.6,-,N/A,,Clear,200,2013-02-06 08:15:00
2:35 AM,30.2,15.8,55,29.96,10.0,SSW,6.9,-,N/A,,Clear,210,2013-02-06 08:35:00
2:55 AM,30.2,17.6,60,29.96,10.0,SSW,5.8,-,N/A,,Clear,200,2013-02-06 08:55:00
3:15 AM,30.2,15.8,55,29.96,10.0,SSW,5.8,-,N/A,,Clear,210,2013-02-06 09:15:00
3:35 AM,30.2,17.6,60,29.96,10.0,SSW,6.9,-,N/A,,Clear,210,2013-02-06 09:35:00
3:55 AM,28.4,15.8,59,29.95,10.0,SW,8.1,-,N/A,,Clear,220,2013-02-06 09:55:00
4:15 AM,28.4,17.6,64,29.95,10.0,SW,8.1,-,N/A,,Clear,230,2013-02-06 10:15:00
4:35 AM,28.4,15.8,59,29.94,10.0,WSW,5.8,-,N/A,,Clear,240,2013-02-06 10:35:00
4:55 AM,28.4,17.6,64,29.94,10.0,SW,4.6,-,N/A,,Clear,230,2013-02-06 10:55:00
5:15 AM,26.6,15.8,64,29.93,10.0,SSW,6.9,-,N/A,,Clear,210,2013-02-06 11:15:00
5:35 AM,26.6,17.6,69,29.93,10.0,SSW,11.5,-,N/A,,Clear,200,2013-02-06 11:35:00
5:55 AM,28.4,17.6,64,29.93,10.0,South,12.7,-,N/A,,Scattered Clouds,180,2013-02-06 11:55:00
6:15 AM,30.2,21.2,69,29.93,8.0,South,12.7,-,N/A,,Mostly Cloudy,190,2013-02-06 12:15:00
6:35 AM,33.8,26.6,75,29.93,0.5,SSW,13.8,-,N/A,,Overcast,200,2013-02-06 12:35:00
6:55 AM,37.4,32.0,81,29.92,0.8,South,12.7,-,N/A,,Overcast,190,2013-02-06 12:55:00
7:15 AM,37.4,32.0,81,29.92,1.2,South,12.7,-,N/A,,Overcast,180,2013-02-06 13:15:00
7:35 AM,39.2,33.8,81,29.92,2.0,South,11.5,-,N/A,,Overcast,190,2013-02-06 13:35:00
7:55 AM,39.2,33.8,81,29.92,2.5,South,10.4,-,N/A,,Overcast,190,2013-02-06 13:55:00
8:15 AM,39.2,33.8,81,29.91,4.0,South,12.7,-,N/A,,Overcast,180,2013-02-06 14:15:00
8:35 AM,41.0,35.6,81,29.91,5.0,South,13.8,-,N/A,,Overcast,180,2013-02-06 14:35:00
8:55 AM,42.8,35.6,76,29.91,7.0,South,15.0,-,N/A,,Overcast,180,2013-02-06 14:55:00
9:15 AM,44.6,37.4,76,29.91,8.0,South,17.3,23.0,N/A,,Overcast,180,2013-02-06 15:15:00
9:35 AM,44.6,39.2,81,29.91,9.0,South,19.6,24.2,N/A,,Overcast,190,2013-02-06 15:35:00
9:55 AM,46.4,39.2,76,29.91,9.0,South,20.7,-,N/A,,Overcast,190,2013-02-06 15:55:00
10:35 AM,50.0,41.0,71,29.90,10.0,SSW,19.6,-,N/A,,Clear,200,2013-02-06 16:35:00
10:55 AM,51.8,41.0,67,29.89,10.0,SSW,18.4,23.0,N/A,,Clear,200,2013-02-06 16:55:00
11:15 AM,53.6,41.0,62,29.88,10.0,South,16.1,-,N/A,,Clear,190,2013-02-06 17:15:00
11:35 AM,55.4,42.8,63,29.87,10.0,South,20.7,24.2,N/A,,Clear,180,2013-02-06 17:35:00
11:55 AM,55.4,42.8,63,29.85,10.0,South,16.1,24.2,N/A,,Clear,190,2013-02-06 17:55:00
12:15 PM,57.2,42.8,59,29.84,10.0,SSW,20.7,26.5,N/A,,Clear,200,2013-02-06 18:15:00
12:35 PM,59.0,42.8,55,29.83,10.0,South,20.7,-,N/A,,Clear,190,2013-02-06 18:35:00
12:55 PM,60.8,42.8,52,29.81,10.0,South,19.6,26.5,N/A,,Clear,190,2013-02-06 18:55:00
1:15 PM,62.6,41.0,45,29.80,10.0,South,18.4,27.6,N/A,,Clear,190,2013-02-06 19:15:00
1:35 PM,64.4,39.2,40,29.78,10.0,South,18.4,-,N/A,,Clear,180,2013-02-06 19:35:00
1:55 PM,66.2,39.2,37,29.78,10.0,South,18.4,-,N/A,,Clear,180,2013-02-06 19:55:00
2:15 PM,66.2,37.4,35,29.76,10.0,SSW,18.4,24.2,N/A,,Clear,200,2013-02-06 20:15:00
2:35 PM,68.0,35.6,30,29.74,10.0,SSW,19.6,-,N/A,,Clear,200,2013-02-06 20:35:00
2:55 PM,69.8,33.8,27,29.73,10.0,South,20.7,25.3,N/A,,Clear,180,2013-02-06 20:55:00
3:15 PM,69.8,32.0,25,29.72,10.0,South,23.0,29.9,N/A,,Clear,190,2013-02-06 21:15:00
3:35 PM,69.8,30.2,23,29.72,10.0,SSW,23.0,-,N/A,,Clear,200,2013-02-06 21:35:00
3:55 PM,69.8,28.4,21,29.71,10.0,SSW,24.2,-,N/A,,Clear,200,2013-02-06 21:55:00
4:15 PM,69.8,26.6,20,29.71,10.0,SSW,24.2,27.6,N/A,,Clear,210,2013-02-06 22:15:00
4:35 PM,69.8,26.6,20,29.71,10.0,SSW,21.9,26.5,N/A,,Clear,200,2013-02-06 22:35:00
4:55 PM,69.8,26.6,20,29.70,10.0,SSW,17.3,-,N/A,,Clear,210,2013-02-06 22:55:00
5:15 PM,69.8,24.8,18,29.69,10.0,SSW,17.3,21.9,N/A,,Clear,210,2013-02-06 23:15:00
5:35 PM,68.0,24.8,20,29.70,10.0,SW,11.5,-,N/A,,Clear,220,2013-02-06 23:35:00
5:55 PM,64.4,21.2,19,29.70,10.0,SW,8.1,-,N/A,,Clear,230,2013-02-06 23:55:00
6:15 PM,60.8,19.4,20,29.70,10.0,South,10.4,-,N/A,,Clear,170,2013-02-07 00:15:00
6:35 PM,57.2,21.2,25,29.70,10.0,South,3.5,-,N/A,,Clear,170,2013-02-07 00:35:00
6:55 PM,55.4,19.4,25,29.71,10.0,South,5.8,-,N/A,,Clear,180,2013-02-07 00:55:00
7:15 PM,51.8,19.4,28,29.72,10.0,WSW,5.8,-,N/A,,Clear,240,2013-02-07 01:15:00
7:35 PM,51.8,21.2,30,29.72,10.0,Calm,Calm,-,N/A,,Clear,0,2013-02-07 01:35:00
7:55 PM,51.8,21.2,30,29.72,10.0,SSE,10.4,-,N/A,,Clear,150,2013-02-07 01:55:00
8:15 PM,48.2,19.4,32,29.73,10.0,SSE,9.2,-,N/A,,Clear,160,2013-02-07 02:15:00
8:35 PM,50.0,21.2,32,29.74,10.0,South,13.8,18.4,N/A,,Clear,180,2013-02-07 02:35:00
8:55 PM,50.0,28.4,43,29.74,10.0,South,12.7,-,N/A,,Clear,190,2013-02-07 02:55:00
9:15 PM,50.0,30.2,47,29.75,10.0,SW,9.2,-,N/A,,Clear,220,2013-02-07 03:15:00
9:35 PM,48.2,30.2,50,29.75,10.0,SW,9.2,-,N/A,,Clear,220,2013-02-07 03:35:00
9:55 PM,44.6,28.4,53,29.75,10.0,SW,6.9,-,N/A,,Clear,220,2013-02-07 03:55:00
10:15 PM,44.6,28.4,53,29.75,10.0,South,6.9,-,N/A,,Clear,190,2013-02-07 04:15:00
10:35 PM,44.6,30.2,57,29.75,10.0,South,5.8,-,N/A,,Clear,180,2013-02-07 04:35:00
10:55 PM,41.0,28.4,61,29.77,10.0,WNW,10.4,-,N/A,,Clear,290,2013-02-07 04:55:00
11:15 PM,35.6,21.2,56,29.77,10.0,NW,10.4,-,N/A,,Clear,320,2013-02-07 05:15:00
11:35 PM,35.6,23.0,60,29.78,10.0,NNW,9.2,-,N/A,,Clear,330,2013-02-07 05:35:00
11:55 PM,35.6,26.6,70,29.79,10.0,North,10.4,-,N/A,,Clear,360,2013-02-07 05:55:00